Location: Hurecourt
(47.9030°N, 6.0653°E)
Time: 00:32:55
(UTC+00:00)

Cosmos 2173 Rocket - Pass Details

Date: 14 July 2020
Orbit: 944 x 1001 km, 83.0° (Epoch: 03 August)

Event Time Altitude Azimuth Distance (km) Brightness Sun altitude
Exits shadow 01:43:02 22° 217° (SW) 2,028 5.0 -15.3°
Maximum altitude 01:47:03 51° 285° (WNW) 1,230 4.4 -15.0°
Drops below altitude 10° 01:53:11 10° 1° (N) 2,749 7.3 -14.5°
Sets 01:55:48 0° 6° (N) 3,693 8.3 -14.2°
